Rome Ciampino, Italy

2:11 AM CET on March 24, 2017 (GMT +0100)
Ciampino

Weather History for LIRA - May, 2013

Change the Weather History Date:

Friday, May 31, 2013

  Actual Average Record
Temperature  
Mean Temperature 58 °F -  
Max Temperature 62 °F 81 °F 82 °F (1999)
Min Temperature 53 °F 58 °F 53 °F (1998)
Degree Days  
Heating Degree Days 8    
Growing Degree Days 8 (Base 50)    
Moisture  
Dew Point 52 °F    
Average Humidity 79    
Maximum Humidity 94    
Minimum Humidity 63    
Precipitation  
Precipitation 0.00 in 0.04 in - ()
Sea Level Pressure  
Sea Level Pressure 29.72 in    
Wind  
Wind Speed 8 mph ()    
Max Wind Speed 15 mph    
Max Gust Speed 29 mph    
Visibility 6.2 miles    
Events Rain    
Averages and records for this station are not official NWS values.
T = Trace of Precipitation, MM = Missing Value Source: Averaged Metar Reports

Daily Weather History Graph

Daily Weather History Graph

Search for Another Location

Airport or City:

Trip Planner

Search our weather history database for the weather conditions in past years. The results will help you decide how hot, cold, wet, or windy it might be!

Date:

Astronomy

May. 31, 2013 Rise Set
Actual Time 5:37 AM CEST 8:37 PM CEST
Civil Twilight 5:04 AM CEST 9:10 PM CEST
Nautical Twilight 4:22 AM CEST 9:53 PM CEST
Astronomical Twilight 3:32 AM CEST 10:43 PM CEST
Moon 12:59 AM CEST (5/31) 12:38 PM CEST (5/31)
Length of Visible Light 16h 06m
Length of Day
14h 59m
Waning Gibbous, 54% of the Moon is Illuminated
May 31
Waning Gibbous
May 31
Last Quarter
Jun 8
New
Jun 16
First Quarter
Jun 23
Full

Hourly Weather History & Observations

Time (CEST) Temp. Dew Point Humidity Pressure Visibility Wind Dir Wind Speed Gust Speed Precip Events Conditions
12:15 AM 57.2 °F 51.8 °F 82% 29.74 in 6.2 mi South 5.8 mph - N/A   Scattered Clouds
12:45 AM 55.4 °F 51.8 °F 88% 29.74 in 6.2 mi South 4.6 mph - N/A   Partly Cloudy
1:15 AM 55.4 °F 51.8 °F 88% 29.74 in 6.2 mi South 4.6 mph - N/A   Partly Cloudy
1:45 AM 53.6 °F 51.8 °F 94% 29.71 in 6.2 mi SSE 8.1 mph - N/A   Partly Cloudy
2:15 AM 53.6 °F 51.8 °F 94% 29.71 in 6.2 mi SSE 6.9 mph - N/A   Partly Cloudy
2:45 AM 53.6 °F 51.8 °F 94% 29.71 in 6.2 mi SSE 6.9 mph - N/A   Partly Cloudy
5:15 AM 53.6 °F 51.8 °F 94% 29.68 in 6.2 mi South 5.8 mph - N/A   Partly Cloudy
5:45 AM 53.6 °F 51.8 °F 94% 29.71 in 6.2 mi South 4.6 mph - N/A   Scattered Clouds
6:15 AM 53.6 °F 51.8 °F 94% 29.71 in 6.2 mi South 8.1 mph - N/A   Partly Cloudy
6:45 AM 55.4 °F 51.8 °F 88% 29.71 in 6.2 mi South 6.9 mph - N/A   Scattered Clouds
7:15 AM 55.4 °F 51.8 °F 88% 29.71 in 6.2 mi South 8.1 mph - N/A   Partly Cloudy
7:45 AM 57.2 °F 53.6 °F 88% 29.71 in 6.2 mi South 8.1 mph - N/A   Partly Cloudy
8:15 AM 59.0 °F 53.6 °F 82% 29.71 in 6.2 mi South 8.1 mph - N/A   Partly Cloudy
8:45 AM 59.0 °F 53.6 °F 82% 29.71 in 6.2 mi South 10.4 mph - N/A   Partly Cloudy
9:15 AM 59.0 °F 55.4 °F 88% 29.71 in 5.0 mi SW 9.2 mph 20.7 mph N/A Rain Light Rain
9:45 AM 60.8 °F 53.6 °F 77% 29.71 in 6.2 mi SW 11.5 mph - N/A   Partly Cloudy
10:15 AM 62.6 °F 50.0 °F 63% 29.71 in 6.2 mi WSW 12.7 mph - N/A   Scattered Clouds
10:45 AM 59.0 °F 53.6 °F 82% 29.71 in 6.2 mi SW 12.7 mph - N/A   Mostly Cloudy
11:15 AM 60.8 °F 53.6 °F 77% 29.71 in 6.2 mi WSW 12.7 mph - N/A   Mostly Cloudy
11:45 AM 62.6 °F 51.8 °F 68% 29.71 in 6.2 mi SW 15.0 mph - N/A   Mostly Cloudy
12:15 PM 60.8 °F 53.6 °F 77% 29.74 in 6.2 mi WSW 15.0 mph - N/A Rain Light Rain
12:45 PM 60.8 °F 51.8 °F 72% 29.74 in 6.2 mi SW 15.0 mph 28.8 mph N/A   Mostly Cloudy
1:15 PM 60.8 °F 50.0 °F 68% 29.74 in 6.2 mi SW 13.8 mph 25.3 mph N/A   Mostly Cloudy
1:45 PM 60.8 °F 55.4 °F 82% 29.74 in 6.2 mi SW 10.4 mph 21.9 mph N/A   Scattered Clouds
2:15 PM 62.6 °F 53.6 °F 72% 29.74 in 6.2 mi WSW 11.5 mph - N/A   Scattered Clouds
2:45 PM 62.6 °F 51.8 °F 68% 29.74 in 6.2 mi SW 13.8 mph 25.3 mph N/A   Scattered Clouds
3:15 PM 62.6 °F 51.8 °F 68% 29.74 in 6.2 mi SW 15.0 mph - N/A   Scattered Clouds
3:45 PM 62.6 °F 51.8 °F 68% 29.74 in 6.2 mi SW 13.8 mph - N/A   Scattered Clouds
4:15 PM 62.6 °F 51.8 °F 68% 29.74 in 6.2 mi SW 15.0 mph 27.6 mph N/A   Scattered Clouds
4:45 PM 62.6 °F 51.8 °F 68% 29.74 in 6.2 mi SW 12.7 mph 25.3 mph N/A   Mostly Cloudy
5:15 PM 62.6 °F 51.8 °F 68% 29.74 in 6.2 mi SW 12.7 mph - N/A   Mostly Cloudy
5:45 PM 62.6 °F 51.8 °F 68% 29.74 in 6.2 mi SW 11.5 mph 23.0 mph N/A   Mostly Cloudy
6:15 PM 62.6 °F 51.8 °F 68% 29.71 in 6.2 mi SW 11.5 mph - N/A   Mostly Cloudy
6:45 PM 62.6 °F 50.0 °F 63% 29.71 in 6.2 mi SW 9.2 mph - N/A   Mostly Cloudy
7:15 PM 60.8 °F 48.2 °F 63% 29.71 in 6.2 mi WSW 10.4 mph - N/A   Scattered Clouds
7:45 PM 60.8 °F 50.0 °F 68% 29.71 in 6.2 mi SW 9.2 mph - N/A   Scattered Clouds
8:15 PM 60.8 °F 50.0 °F 68% 29.74 in 6.2 mi SW 6.9 mph - N/A   Scattered Clouds
8:45 PM 59.0 °F 51.8 °F 77% 29.74 in 6.2 mi South 6.9 mph - N/A   Scattered Clouds
9:15 PM 59.0 °F 51.8 °F 77% 29.74 in 6.2 mi South 6.9 mph - N/A   Scattered Clouds
9:45 PM 57.2 °F 51.8 °F 82% 29.74 in 6.2 mi South 6.9 mph - N/A   Partly Cloudy
10:15 PM 57.2 °F 53.6 °F 88% 29.74 in 6.2 mi South 6.9 mph - N/A   Partly Cloudy
10:45 PM 57.2 °F 51.8 °F 82% 29.74 in 6.2 mi South 6.9 mph - N/A   Scattered Clouds
11:15 PM 57.2 °F 53.6 °F 88% 29.74 in 6.2 mi South 6.9 mph - N/A   Scattered Clouds
11:45 PM 57.2 °F 53.6 °F 88% 29.74 in 6.2 mi South 6.9 mph - N/A   Mostly Cloudy